When you browse on this site, cookies collect data to enhance your experience and personalize the content and advertising you see.
Visit our Privacy Policy to learn more. By continuing to use the site, you agree to this use of cookies and data.
  • In Slovakia
  • List of Countries
  • For 7 days
  • Water Temperature
  • Weather Map
  • Weather Widgets
  • user-avatar
    Login

    Hourly Weather Malanje

    Today, 12 November, Tuesday

    Time Temperature Precipitation Wind Pressure Humidity
    00:00 +20°C° 0 mm 1 mps 664 mmHg 95%
    01:00 +19°C° 0 mm 0 mps 664 mmHg 94%
    02:00 +18°C° 0.4 mm 0 mps 663 mmHg 95%
    03:00 +18°C° 0.4 mm 0 mps 663 mmHg 96%
    04:00 +18°C° 0.4 mm 0 mps 662 mmHg 96%
    05:00 +19°C° 0 mm 0 mps 663 mmHg 94%
    06:00 +20°C° 0 mm 0 mps 663 mmHg 92%
    07:00 +21°C° 0 mm 0 mps 664 mmHg 89%
    08:00 +23°C° 0 mm 0 mps 665 mmHg 79%
    09:00 +26°C° 0 mm 0 mps 665 mmHg 70%
    10:00 +28°C° 0 mm 0 mps 666 mmHg 61%
    11:00 +30°C° 0.3 mm 1 mps 665 mmHg 62%
    12:00 +29°C° 0.3 mm 1 mps 664 mmHg 64%
    13:00 +28°C° 0 mm 2 mps 663 mmHg 65%
    14:00 +28°C° 1.2 mm 2 mps 663 mmHg 71%
    15:00 +27°C° 1.2 mm 1 mps 662 mmHg 78%
    16:00 +26°C° 1.2 mm 1 mps 661 mmHg 84%
    17:00 +25°C° 0.2 mm 1 mps 662 mmHg 87%
    18:00 +23°C° 0.2 mm 1 mps 662 mmHg 91%
    19:00 +22°C° 0.2 mm 1 mps 663 mmHg 94%
    20:00 +22°C° 0.2 mm 1 mps 663 mmHg 95%
    21:00 +21°C° 0.2 mm 1 mps 663 mmHg 95%
    22:00 +21°C° 0.2 mm 1 mps 664 mmHg 96%
    23:00 +21°C° 0.1 mm 1 mps 663 mmHg 96%

    Tomorrow, 13 November, Wednesday

    Time Temperature Precipitation Wind Pressure Humidity
    00:00 +21°C° 0.1 mm 1 mps 663 mmHg 97%
    01:00 +21°C° 0.1 mm 1 mps 663 mmHg 97%
    02:00 +21°C° 0.6 mm 1 mps 663 mmHg 97%
    03:00 +21°C° 0.6 mm 1 mps 663 mmHg 97%
    04:00 +19°C° 0.6 mm 0 mps 663 mmHg 98%
    05:00 +21°C° 1.3 mm 1 mps 663 mmHg 97%
    06:00 +20°C° 1.3 mm 2 mps 664 mmHg 97%
    07:00 +20°C° 1.3 mm 2 mps 665 mmHg 96%
    08:00 +20°C° 0.9 mm 2 mps 665 mmHg 96%
    09:00 +20°C° 0.9 mm 2 mps 665 mmHg 96%
    10:00 +21°C° 0.9 mm 2 mps 666 mmHg 95%
    11:00 +21°C° 0.5 mm 2 mps 665 mmHg 93%
    12:00 +22°C° 0.5 mm 1 mps 665 mmHg 90%
    13:00 +23°C° 0.5 mm 1 mps 665 mmHg 88%
    14:00 +23°C° 0 mm 1 mps 664 mmHg 85%
    15:00 +24°C° 0 mm 1 mps 663 mmHg 83%
    16:00 +24°C° 0 mm 1 mps 663 mmHg 80%
    17:00 +23°C° 0 mm 1 mps 663 mmHg 85%
    18:00 +20°C° 0 mm 0 mps 664 mmHg 90%
    19:00 +19°C° 0 mm 0 mps 664 mmHg 95%
    20:00 +19°C° 0 mm 0 mps 664 mmHg 95%
    21:00 +19°C° 0 mm 0 mps 664 mmHg 96%
    22:00 +20°C° 0 mm 1 mps 664 mmHg 96%
    23:00 +18°C° 0 mm 0 mps 664 mmHg 96%

    Day after tomorrow, 14 November, Thursday

    Time Temperature Precipitation Wind Pressure Humidity
    00:00 +18°C° 0 mm 0 mps 664 mmHg 95%
    01:00 +18°C° 0 mm 0 mps 664 mmHg 95%
    02:00 +18°C° 0 mm 0 mps 664 mmHg 94%
    03:00 +18°C° 0 mm 0 mps 663 mmHg 94%
    04:00 +20°C° 0 mm 1 mps 663 mmHg 93%
    05:00 +20°C° 0 mm 1 mps 664 mmHg 92%
    06:00 +21°C° 0 mm 1 mps 664 mmHg 92%
    07:00 +21°C° 0 mm 1 mps 665 mmHg 91%
    08:00 +23°C° 0 mm 2 mps 665 mmHg 85%
    09:00 +24°C° 0 mm 2 mps 665 mmHg 80%
    10:00 +26°C° 0 mm 2 mps 666 mmHg 74%
    11:00 +26°C° 1.3 mm 2 mps 665 mmHg 77%
    12:00 +26°C° 1.3 mm 2 mps 664 mmHg 80%
    13:00 +26°C° 1.3 mm 2 mps 663 mmHg 83%
    14:00 +26°C° 1.4 mm 1 mps 663 mmHg 84%
    15:00 +26°C° 1.4 mm 1 mps 663 mmHg 85%
    16:00 +24°C° 1.4 mm 0 mps 662 mmHg 87%
    17:00 +22°C° 0.7 mm 0 mps 662 mmHg 89%
    18:00 +21°C° 0.7 mm 0 mps 662 mmHg 91%
    19:00 +20°C° 0.7 mm 0 mps 663 mmHg 93%
    20:00 +20°C° 0.3 mm 0 mps 663 mmHg 94%
    21:00 +22°C° 0.3 mm 1 mps 663 mmHg 95%
    22:00 +21°C° 0.3 mm 1 mps 664 mmHg 96%
    23:00 +21°C° 0.8 mm 1 mps 664 mmHg 96%

    15 November, Friday

    Time Temperature Precipitation Wind Pressure Humidity
    00:00 +21°C° 0.8 mm 1 mps 663 mmHg 97%
    01:00 +20°C° 0.8 mm 1 mps 663 mmHg 98%
    02:00 +20°C° 0.7 mm 1 mps 663 mmHg 98%
    03:00 +18°C° 0.7 mm 0 mps 663 mmHg 98%
    04:00 +18°C° 0.7 mm 0 mps 663 mmHg 98%
    05:00 +18°C° 0.5 mm 0 mps 663 mmHg 97%
    06:00 +19°C° 0.5 mm 0 mps 664 mmHg 97%
    07:00 +20°C° 0.5 mm 0 mps 664 mmHg 96%
    08:00 +21°C° 1.5 mm 0 mps 665 mmHg 92%
    09:00 +22°C° 1.5 mm 0 mps 665 mmHg 89%
    10:00 +26°C° 1.5 mm 1 mps 665 mmHg 85%
    11:00 +24°C° 1.6 mm 1 mps 664 mmHg 87%
    12:00 +25°C° 1.6 mm 2 mps 663 mmHg 86%
    13:00 +26°C° 1.6 mm 2 mps 663 mmHg 84%
    14:00 +25°C° 2.1 mm 2 mps 662 mmHg 87%
    15:00 +25°C° 2.1 mm 1 mps 662 mmHg 90%
    16:00 +24°C° 2.1 mm 1 mps 661 mmHg 92%
    17:00 +23°C° 1.5 mm 2 mps 661 mmHg 93%
    18:00 +21°C° 1.5 mm 2 mps 662 mmHg 94%
    19:00 +21°C° 1.5 mm 3 mps 662 mmHg 95%
    20:00 +20°C° 0.3 mm 3 mps 662 mmHg 96%
    21:00 +20°C° 0.3 mm 2 mps 663 mmHg 96%
    22:00 +20°C° 0.3 mm 2 mps 663 mmHg 97%
    23:00 +20°C° 0 mm 2 mps 663 mmHg 97%

    16 November, Saturday

    Time Temperature Precipitation Wind Pressure Humidity
    00:00 +19°C° 0 mm 2 mps 662 mmHg 97%
    01:00 +20°C° 0 mm 1 mps 662 mmHg 98%
    02:00 +20°C° 0 mm 1 mps 662 mmHg 98%
    03:00 +20°C° 0 mm 1 mps 662 mmHg 98%
    04:00 +20°C° 0 mm 1 mps 662 mmHg 98%
    05:00 +20°C° 0 mm 1 mps 662 mmHg 97%
    06:00 +21°C° 0 mm 1 mps 663 mmHg 96%
    07:00 +21°C° 0 mm 1 mps 664 mmHg 95%
    08:00 +22°C° 1.1 mm 1 mps 664 mmHg 92%
    09:00 +23°C° 1.1 mm 1 mps 664 mmHg 90%
    10:00 +25°C° 1.1 mm 1 mps 665 mmHg 87%
    11:00 +25°C° 1.5 mm 2 mps 664 mmHg 87%
    12:00 +25°C° 1.5 mm 2 mps 663 mmHg 86%
    13:00 +25°C° 1.5 mm 2 mps 662 mmHg 85%
    14:00 +25°C° 0.5 mm 2 mps 662 mmHg 84%
    15:00 +26°C° 0.5 mm 2 mps 662 mmHg 83%
    16:00 +26°C° 0.5 mm 2 mps 661 mmHg 82%
    17:00 +24°C° 1.2 mm 2 mps 661 mmHg 86%
    18:00 +23°C° 1.2 mm 2 mps 662 mmHg 91%
    19:00 +20°C° 1.2 mm 2 mps 662 mmHg 95%
    20:00 +20°C° 0.3 mm 2 mps 662 mmHg 96%
    21:00 +20°C° 0.3 mm 2 mps 663 mmHg 96%
    22:00 +20°C° 0.3 mm 2 mps 663 mmHg 97%
    23:00 +20°C° 0 mm 2 mps 663 mmHg 98%

    17 November, Sunday

    Time Temperature Precipitation Wind Pressure Humidity
    00:00 +21°C° 0 mm 1 mps 663 mmHg 98%
    01:00 +20°C° 0 mm 1 mps 662 mmHg 98%
    02:00 +20°C° 0.1 mm 1 mps 662 mmHg 98%
    03:00 +20°C° 0.1 mm 1 mps 662 mmHg 98%
    04:00 +20°C° 0.1 mm 1 mps 662 mmHg 98%
    05:00 +21°C° 0.5 mm 1 mps 663 mmHg 98%
    06:00 +20°C° 0.5 mm 2 mps 663 mmHg 97%
    07:00 +20°C° 0.5 mm 2 mps 664 mmHg 97%
    08:00 +21°C° 0.7 mm 2 mps 664 mmHg 94%
    09:00 +23°C° 0.7 mm 2 mps 664 mmHg 91%
    10:00 +24°C° 0.7 mm 2 mps 665 mmHg 88%
    11:00 +24°C° 1.1 mm 2 mps 664 mmHg 88%
    12:00 +24°C° 1.1 mm 2 mps 663 mmHg 87%
    13:00 +24°C° 1.1 mm 2 mps 662 mmHg 87%
    14:00 +24°C° 0.8 mm 2 mps 662 mmHg 88%
    15:00 +24°C° 0.8 mm 3 mps 662 mmHg 88%
    16:00 +24°C° 0.8 mm 3 mps 662 mmHg 89%
    17:00 +22°C° 0.2 mm 3 mps 662 mmHg 91%
    18:00 +21°C° 0.2 mm 2 mps 662 mmHg 94%
    19:00 +20°C° 0.2 mm 2 mps 662 mmHg 96%
    20:00 +19°C° 0 mm 2 mps 663 mmHg 96%
    21:00 +19°C° 0 mm 2 mps 663 mmHg 96%
    22:00 +20°C° 0 mm 1 mps 663 mmHg 97%
    23:00 +20°C° 0 mm 1 mps 663 mmHg 97%
    Show more